Weather History for Dayton Wright, OH

Change the Weather History Date:

Wednesday, June 26, 2013

  Actual Average (KFFO) Record (KFFO)
Temperature  
Mean Temperature 76 °F -  
Max Temperature 84 °F 81 °F 95 °F (2005)
Min Temperature 68 °F 60 °F 50 °F (2012)
Cooling Degree Days 11    
Growing Degree Days 26 (Base 50)    
Moisture  
Dew Point 68 °F    
Average Humidity 82    
Maximum Humidity 100    
Minimum Humidity 61    
Precipitation  
Precipitation 0.47 in - - ()
Sea Level Pressure  
Sea Level Pressure 29.87 in    
Wind  
Wind Speed 8 mph (SW)    
Max Wind Speed 14 mph    
Max Gust Speed 38 mph    
Visibility 9 miles    
Events Rain , Thunderstorm    
Averages and records for this station are not official NWS values.
T = Trace of Precipitation, MM = Missing Value Source: NWS Daily Summary

Daily Weather History Graph

Daily Weather History Graph

Search for Another Location

Airport:

Trip Planner

Search our weather history database for the weather conditions in past years. The results will help you decide how hot, cold, wet, or windy it might be!

Date:

Astronomy

Jun. 26, 2013 Rise Set
Actual Time 6:11 AM EDT 9:08 PM EDT
Civil Twilight 5:38 AM EDT 9:41 PM EDT
Nautical Twilight 4:57 AM EDT 10:22 PM EDT
Astronomical Twilight 4:09 AM EDT 11:09 PM EDT
Moon 11:32 PM EDT (6/26) 10:00 AM EDT (6/26)
Length of Visible Light 16h 02m
Length of Day
14h 57m
Waning Gibbous, 85% of the Moon is Illuminated
Jun 26
Waning Gibbous
Jun 30
Last Quarter
Jul 8
New
Jul 15
First Quarter
Jul 22
Full

Hourly Weather History & Observations

Time (EDT) Temp. Heat Index Dew Point Humidity Pressure Visibility Wind Dir Wind Speed Gust Speed Precip Events Conditions
12:41 AM 80.6 °F 83.9 °F 69.8 °F 70% 29.93 in 10.0 mi SSW 9.2 mph - N/A Thunderstorm Thunderstorm
12:53 AM 80.1 °F 83.2 °F 70.0 °F 71% 29.90 in 10.0 mi SSW 8.1 mph - N/A Thunderstorm Thunderstorm
1:07 AM 78.8 °F - 71.6 °F 78% 29.92 in 10.0 mi SSW 6.9 mph - N/A   Partly Cloudy
1:29 AM 78.8 °F - 71.6 °F 78% 29.92 in 10.0 mi SSW 12.7 mph 18.4 mph N/A Thunderstorm Partly Cloudy
1:36 AM 73.4 °F - 66.2 °F 78% 29.94 in 1.8 mi West 10.4 mph 38.0 mph 0.17 in Rain , Thunderstorm Heavy Thunderstorms and Rain
1:45 AM 71.6 °F - 64.4 °F 78% 29.93 in 4.0 mi WSW 8.1 mph - 0.18 in Rain , Thunderstorm Thunderstorms and Rain
1:53 AM 71.1 °F - 64.9 °F 81% 29.89 in 8.0 mi SW 5.8 mph - 0.18 in Rain , Thunderstorm Light Thunderstorms and Rain
2:27 AM 69.8 °F - 66.2 °F 88% 29.94 in 10.0 mi SSW 4.6 mph - 0.01 in Rain Light Rain
2:53 AM 71.1 °F - 66.0 °F 84% 29.90 in 10.0 mi West 5.8 mph - 0.01 in   Partly Cloudy
3:53 AM 70.0 °F - 66.9 °F 90% 29.91 in 8.0 mi SSW 3.5 mph - N/A   Scattered Clouds
4:45 AM 69.8 °F - 64.4 °F 83% 29.95 in 10.0 mi WSW 6.9 mph - 0.00 in Rain , Thunderstorm Light Rain
4:53 AM 70.0 °F - 64.9 °F 84% 29.92 in 10.0 mi WSW 6.9 mph - 0.01 in Rain , Thunderstorm Light Rain
4:56 AM 69.8 °F - 64.4 °F 83% 29.95 in 10.0 mi WSW 11.5 mph - 0.00 in Rain , Thunderstorm Light Rain
5:17 AM 69.8 °F - 64.4 °F 83% 29.95 in 10.0 mi WSW 5.8 mph - 0.01 in Rain Light Rain
5:53 AM 68.0 °F - 66.0 °F 93% 29.94 in 6.0 mi SW 5.8 mph - 0.04 in Rain Rain
6:53 AM 68.0 °F - 66.0 °F 93% 29.90 in 6.0 mi South 6.9 mph - 0.10 in Rain Light Rain
7:05 AM 68.0 °F - 66.2 °F 94% 29.90 in 5.0 mi South 8.1 mph - 0.00 in Rain Light Rain
7:53 AM 69.1 °F - 66.9 °F 93% 29.92 in 10.0 mi WSW 9.2 mph - 0.00 in   Mostly Cloudy
8:53 AM 70.0 °F - 66.9 °F 90% 29.91 in 10.0 mi West 6.9 mph - N/A   Clear
9:53 AM 73.0 °F - 66.0 °F 79% 29.91 in 10.0 mi SW 9.2 mph - N/A   Partly Cloudy
10:53 AM 75.0 °F - 66.9 °F 76% 29.90 in 10.0 mi SSW 9.2 mph - N/A   Partly Cloudy
11:53 AM 77.0 °F - 66.9 °F 71% 29.91 in 10.0 mi SW 5.8 mph - N/A   Clear
12:53 PM 80.1 °F 82.7 °F 68.0 °F 67% 29.89 in 10.0 mi SSW 8.1 mph - N/A   Clear
1:53 PM 81.0 °F 84.1 °F 69.1 °F 67% 29.88 in 10.0 mi SW 6.9 mph - N/A   Clear
2:30 PM 82.4 °F 86.3 °F 69.8 °F 66% 29.89 in 10.0 mi SW 6.9 mph - N/A   Mostly Cloudy
2:45 PM 82.4 °F 86.3 °F 69.8 °F 66% 29.88 in 10.0 mi WSW 8.1 mph - N/A   Mostly Cloudy
2:53 PM 84.0 °F 89.0 °F 71.1 °F 65% 29.85 in 10.0 mi SW 9.2 mph - N/A   Scattered Clouds
3:41 PM 82.4 °F 86.3 °F 69.8 °F 66% 29.85 in 10.0 mi SW 12.7 mph 18.4 mph N/A Thunderstorm Mostly Cloudy
3:53 PM 82.0 °F 85.5 °F 69.1 °F 65% 29.84 in 10.0 mi WSW 11.5 mph 19.6 mph N/A Thunderstorm Thunderstorm
4:08 PM 75.2 °F - 66.2 °F 73% 29.86 in 10.0 mi WNW 9.2 mph 21.9 mph N/A Thunderstorm Thunderstorm
4:39 PM 80.6 °F 82.7 °F 66.2 °F 61% 29.82 in 10.0 mi SW 3.5 mph - N/A   Partly Cloudy
4:53 PM 80.1 °F 82.9 °F 69.1 °F 69% 29.80 in 10.0 mi Calm Calm - 0.00 in Rain Light Rain
5:53 PM 77.0 °F - 69.1 °F 76% 29.81 in 1.5 mi SW 13.8 mph 27.6 mph 0.10 in Rain , Thunderstorm Thunderstorms and Rain
6:02 PM 75.2 °F - 71.6 °F 89% 29.82 in 4.0 mi SSW 9.2 mph - 0.00 in Rain , Thunderstorm Light Thunderstorms and Rain
6:26 PM 75.2 °F - 71.6 °F 89% 29.82 in 9.0 mi South 12.7 mph 16.1 mph 0.00 in Thunderstorm Thunderstorm
6:44 PM 73.4 °F - 69.8 °F 88% 29.81 in 9.0 mi SSW 6.9 mph - 0.01 in Rain Light Rain
6:53 PM 73.0 °F - 70.0 °F 90% 29.80 in 6.0 mi SW 3.5 mph - 0.01 in Rain , Thunderstorm Light Rain
7:07 PM 71.6 °F - 69.8 °F 94% 29.82 in 7.0 mi SSW 10.4 mph - 0.02 in Rain Light Rain
7:53 PM 71.1 °F - 68.0 °F 90% 29.80 in 10.0 mi SSE 4.6 mph - 0.02 in   Clear
8:51 PM 69.8 °F - 68.0 °F 94% 29.80 in 10.0 mi South 5.8 mph - 0.00 in   Mostly Cloudy
8:53 PM 70.0 °F - 68.0 °F 93% 29.79 in 10.0 mi South 6.9 mph - 0.00 in   Mostly Cloudy
9:08 PM 69.8 °F - 68.0 °F 94% 29.80 in 10.0 mi South 6.9 mph - N/A   Mostly Cloudy
9:19 PM 69.8 °F - 68.0 °F 94% 29.80 in 10.0 mi SSW 8.1 mph - N/A   Overcast
9:53 PM 70.0 °F - 69.1 °F 97% 29.78 in 8.0 mi South 4.6 mph - N/A   Overcast
10:17 PM 69.8 °F - 69.8 °F 100% 29.79 in 7.0 mi Calm Calm - N/A   Overcast
10:53 PM 70.0 °F - 68.0 °F 93% 29.78 in 6.0 mi South 8.1 mph - N/A   Overcast
11:53 PM 70.0 °F - 68.0 °F 93% 29.79 in 6.0 mi SSW 6.9 mph - N/A   Overcast